Weather History for KRFD - March, 2013

Change the Weather History Date:

Saturday, March 23, 2013

  Actual Average Record
Temperature  
Mean Temperature 31 °F 40 °F  
Max Temperature 41 °F 50 °F 82 °F (1939)
Min Temperature 21 °F 30 °F 5 °F (1965)
Degree Days  
Heating Degree Days 34 25  
Month to date heating degree days 878 678  
Since 1 July heating degree days 5615 5680  
Cooling Degree Days 0 0  
Month to date cooling degree days 0 0  
Year to date cooling degree days 0 0  
Moisture  
Dew Point 20 °F    
Average Humidity 63    
Maximum Humidity 84    
Minimum Humidity 41    
Precipitation  
Precipitation 0.00 in 0.08 in 1.55 in (1938)
Month to date precipitation 2.21 1.61  
Year to date precipitation 8.28 4.39  
Snow  
Snow 0.00 in 0.10 in 1.90 in (1965)
Month to date snowfall 11.9 4.0  
Since 1 July snowfall 38.5 35.0  
Snow Depth 0.00 in    
Sea Level Pressure  
Sea Level Pressure 30.11 in    
Wind  
Wind Speed 5 mph (NE)    
Max Wind Speed 14 mph    
Max Gust Speed 24 mph    
Visibility 10 miles    
Events      
T = Trace of Precipitation, MM = Missing Value Source: NWS Daily Summary

Daily Weather History Graph

Daily Weather History Graph

Search for Another Location

Airport or City:

Trip Planner

Search our weather history database for the weather conditions in past years. The results will help you decide how hot, cold, wet, or windy it might be!

Date:

Astronomy

Mar. 23, 2013 Rise Set
Actual Time 6:54 AM CDT 7:12 PM CDT
Civil Twilight 6:26 AM CDT 7:40 PM CDT
Nautical Twilight 5:53 AM CDT 8:13 PM CDT
Astronomical Twilight 5:19 AM CDT 8:47 PM CDT
Moon 3:35 PM CDT (3/23) 4:34 AM CDT (3/23)
Length of Visible Light 13h 14m
Length of Day
12h 18m
Waxing Gibbous, 85% of the Moon is Illuminated
Mar 23
Waxing Gibbous
Mar 27
Full
Apr 2
Last Quarter
Apr 10
New
Apr 18
First Quarter

Hourly Weather History & Observations

Time (CDT) Temp. Windchill Dew Point Humidity Pressure Visibility Wind Dir Wind Speed Gust Speed Precip Events Conditions
12:54 AM 28.0 °F - 18.0 °F 66% 30.10 in 10.0 mi Calm Calm - N/A   Overcast
1:54 AM 27.0 °F 21.6 °F 19.0 °F 72% 30.10 in 10.0 mi NE 4.6 mph - N/A   Overcast
2:54 AM 27.0 °F 21.6 °F 18.0 °F 69% 30.10 in 10.0 mi NNE 4.6 mph - N/A   Overcast
3:54 AM 26.1 °F - 18.0 °F 71% 30.10 in 10.0 mi Calm Calm - N/A   Mostly Cloudy
4:54 AM 25.0 °F - 18.0 °F 75% 30.11 in 10.0 mi Calm Calm - N/A   Mostly Cloudy
5:54 AM 24.8 °F - 17.6 °F 74% 30.08 in 10.0 mi Calm Calm - N/A   Scattered Clouds
6:54 AM 21.9 °F - 17.1 °F 82% 30.13 in 10.0 mi Calm Calm - N/A   Scattered Clouds
7:54 AM 24.8 °F - 19.4 °F 80% 30.12 in 10.0 mi Calm Calm - N/A   Partly Cloudy
8:54 AM 30.9 °F 26.2 °F 21.0 °F 67% 30.16 in 10.0 mi NE 4.6 mph - N/A   Partly Cloudy
9:54 AM 33.1 °F 26.9 °F 18.0 °F 54% 30.16 in 10.0 mi East 6.9 mph - N/A   Clear
10:54 AM 36.0 °F 31.1 °F 18.0 °F 48% 30.16 in 10.0 mi NE 5.8 mph - N/A   Clear
11:54 AM 37.0 °F - 18.0 °F 46% 30.16 in 10.0 mi Calm Calm - N/A   Partly Cloudy
12:54 PM 39.0 °F - 19.0 °F 45% 30.14 in 10.0 mi Calm Calm - N/A   Partly Cloudy
1:54 PM 41.0 °F 37.1 °F 19.0 °F 41% 30.13 in 10.0 mi North 5.8 mph - N/A   Mostly Cloudy
2:54 PM 39.9 °F 36.7 °F 19.0 °F 43% 30.11 in 10.0 mi North 4.6 mph - N/A   Mostly Cloudy
3:54 PM 39.9 °F 34.5 °F 21.0 °F 47% 30.10 in 10.0 mi East 8.1 mph - N/A   Mostly Cloudy
4:54 PM 39.0 °F 34.0 °F 19.0 °F 45% 30.08 in 10.0 mi East 6.9 mph - N/A   Mostly Cloudy
5:54 PM 37.0 °F 30.4 °F 21.9 °F 54% 30.07 in 10.0 mi ENE 9.2 mph - N/A   Overcast
6:54 PM 36.0 °F 31.1 °F 21.9 °F 57% 30.07 in 10.0 mi ENE 5.8 mph - N/A   Overcast
7:54 PM 35.1 °F 27.4 °F 21.9 °F 59% 30.07 in 10.0 mi ENE 10.4 mph - N/A   Overcast
8:54 PM 33.1 °F 25.5 °F 25.0 °F 72% 30.08 in 10.0 mi ENE 9.2 mph - N/A   Overcast
9:54 PM 32.0 °F 24.2 °F 25.0 °F 75% 30.07 in 10.0 mi ENE 9.2 mph - N/A   Overcast
10:54 PM 32.0 °F 24.2 °F 25.0 °F 75% 30.08 in 10.0 mi NE 9.2 mph - N/A   Overcast
11:54 PM 32.0 °F 24.8 °F 25.0 °F 75% 30.08 in 10.0 mi ENE 8.1 mph - N/A   Overcast